EW9414 Weather Reports


time (UTC)temp
C
wind
direction
speed
KPH
gust
KPH
rain 1hr
cm
rain 24hr
cm
rain mn
cm
humidity
%
barometer
mb
20260507033039 7 258 3.2 14.5 0.03 0.05 0.05 79 1014.5
20260507031541 7 254 3.2 12.9 0.00 0.03 0.03 76 1014.4
20260507030046 7 266 4.8 14.5 0.00 0.03 0.03 75 1014.3
20260507024544 7 240 6.4 17.7 0.00 0.03 0.03 73 1014.3
20260507023042 7 204 6.4 16.1 0.00 0.03 0.03 73 1014.2
20260507021540 8 201 6.4 19.3 0.00 0.03 0.03 73 1014.1
20260507014549 8 232 9.7 16.1 0.00 0.03 0.03 70 1013.8
20260507013047 8 242 11.3 17.7 0.00 0.03 0.03 68 1013.9
20260507011542 8 213 9.7 19.3 0.00 0.03 0.03 68 1013.8
20260507010045 8 238 6.4 17.7 0.00 0.03 0.03 68 1013.8
20260507004545 8 228 11.3 19.3 0.00 0.03 0.03 66 1013.7
20260507003043 8 212 11.3 22.5 0.00 0.03 0.03 66 1013.6
20260507001547 8 228 12.9 22.5 0.00 0.03 0.03 67 1013.6
20260507000045 9 234 11.3 22.5 0.00 0.03 0.03 65 1013.4
20260506234550 9 239 11.3 17.7 0.00 0.03 0.03 65 1013.3
20260506233041 9 241 8.0 20.9 0.00 0.03 0.03 65 1013.2
20260506231551 9 242 8.0 20.9 0.00 0.03 0.03 66 1013.0
20260506230055 9 218 9.7 20.9 0.00 0.03 0.03 66 1012.9
20260506224543 9 262 9.7 24.1 0.00 0.03 0.03 68 1012.8
20260506223053 9 223 12.9 24.1 0.00 0.03 0.03 66 1012.8
20260506221540 10 221 12.9 24.1 0.00 0.03 0.03 67 1012.8
20260506220042 10 233 12.9 22.5 0.00 0.03 0.03 65 1012.7
20260506214541 9 227 14.5 22.5 0.00 0.03 0.03 64 1012.6
20260506213101 9 185 6.4 19.3 0.00 0.03 0.03 63 1012.4
20260506211603 9 185 12.9 22.5 0.00 0.03 0.03 65 1012.3
20260506210041 9 238 9.7 17.7 0.00 0.03 0.03 64 1012.2
20260506204554 10 223 4.8 16.1 0.00 0.03 0.03 65 1012.1
20260506203045 10 219 3.2 16.1 0.00 0.03 0.03 64 1012.0
20260506201555 10 167 4.8 9.7 0.00 0.03 0.03 63 1011.9
20260506200044 9 134 8.0 12.9 0.00 0.03 0.03 64 1011.8
20260506194602 10 0 0.0 8.0 0.00 0.03 0.03 65 1011.7
20260506193045 10 0 1.6 11.3 0.00 0.03 0.03 64 1011.6
20260506191548 8 251 0.0 11.3 0.00 0.03 0.03 67 1011.7
20260506190046 8 0 3.2 8.0 0.00 0.03 0.03 70 1011.7
20260506184605 8 0 1.6 3.2 0.00 0.03 0.03 72 1011.8
20260506183104 7 194 0.0 4.8 0.00 0.03 0.03 73 1011.6
20260506181549 7 302 1.6 3.2 0.00 0.03 0.03 75 1011.6
20260506180048 7 355 1.6 4.8 0.00 0.03 0.03 78 1011.5
20260506174544 7 26 1.6 4.8 0.00 0.03 0.03 78 1011.5
20260506173051 6 26 0.0 4.8 0.00 0.03 0.03 80 1011.5
20260506171543 6 26 0.0 3.2 0.00 0.03 0.03 85 1011.5
20260506170104 5 0 0.0 4.8 0.00 0.03 0.03 85 1011.3
20260506164543 5 26 1.6 4.8 0.00 0.03 0.03 87 1011.3
20260506163058 5 9 1.6 4.8 0.00 0.03 0.03 88 1011.2
20260506161548 5 0 1.6 4.8 0.00 0.03 0.03 89 1011.2
20260506160047 4 360 3.2 4.8 0.00 0.03 0.03 90 1011.1
20260506154546 4 349 1.6 4.8 0.00 0.03 0.03 91 1011.1
20260506153044 4 0 0.0 3.2 0.00 0.03 0.03 91 1011.1
20260506151550 3 224 1.6 3.2 0.00 0.03 0.03 90 1011.1
20260506150041 3 0 0.0 1.6 0.00 0.03 0.03 90 1011.0
20260506144553 3 0 0.0 1.6 0.00 0.03 0.03 89 1011.0
20260506143042 3 0 0.0 1.6 0.00 0.03 0.03 88 1011.0
20260506141543 3 224 0.0 1.6 0.00 0.03 0.03 88 1011.0
20260506140045 3 0 0.0 0.0 0.00 0.03 0.03 87 1011.0
20260506134542 4 0 0.0 1.6 0.03 0.03 0.03 86 1011.1
20260506133045 4 0 0.0 3.2 0.03 0.03 0.03 84 1011.0
20260506131538 5 0 0.0 1.6 0.03 0.03 0.03 82 1010.9
20260506130041 5 0 0.0 1.6 0.03 0.03 0.03 80 1010.9
20260506124541 5 0 0.0 1.6 0.00 0.00 0.00 78 1010.8
20260506123049 5 0 0.0 1.6 0.00 0.00 0.00 76 1010.9
20260506121545 5 0 0.0 3.2 0.00 0.00 0.00 74 1010.7
20260506120047 6 0 0.0 4.8 0.00 0.00 0.00 74 1010.5
20260506114544 6 236 6.4 14.5 0.00 0.00 0.00 73 1010.4
20260506113041 6 256 4.8 17.7 0.00 0.00 0.00 73 1010.3
20260506111543 5 240 3.2 14.5 0.00 0.00 0.00 71 1010.3
20260506110041 5 223 1.6 6.4 0.00 0.00 0.00 72 1010.1
20260506104548 4 355 1.6 4.8 0.00 0.00 0.00 75 1009.9
20260506103049 4 355 0.0 4.8 0.00 0.00 0.00 75 1009.8
20260506101542 4 0 0.0 4.8 0.00 0.00 0.00 75 1009.5
20260506100042 4 355 0.0 1.6 0.00 0.00 0.00 74 1009.3
20260506094543 5 0 0.0 1.6 0.00 0.00 0.00 73 1009.1
20260506093047 5 355 1.6 4.8 0.00 0.00 0.00 72 1009.0
20260506091544 5 0 0.0 4.8 0.00 0.00 0.00 71 1009.0
20260506090048 5 355 1.6 4.8 0.00 0.00 0.00 69 1008.8
20260506084600 5 355 1.6 6.4 0.00 0.00 0.00 67 1008.7
20260506083043 5 355 3.2 8.0 0.00 0.00 0.00 66 1008.6
20260506081544 6 355 1.6 6.4 0.00 0.00 0.00 65 1008.7
20260506073053 6 0 1.6 4.8 0.00 0.00 0.00 62 1008.2
20260506071547 7 355 1.6 4.8 0.00 0.00 0.00 60 1008.1
20260506061555 8 100 8.0 19.3 0.00 0.00 0.00 57 1007.4
20260506044547 10 103 9.7 17.7 0.00 0.00 0.00 53 1006.6
20260506043044 10 94 11.3 16.1 0.00 0.00 0.00 52 1006.6
20260506041542 10 98 9.7 17.7 0.00 0.00 0.00 52 1006.5
20260506040045 11 36 8.0 16.1 0.00 0.00 0.00 51 1006.4
20260506034548 11 20 4.8 8.0 0.00 0.00 0.00 51 1006.3